Location: M?digepalle
(16.1753°N, 80.3496°E)
Time: 13:07:43
(UTC+00:00)

Landsat 5 - Pass Details

Date: 29 October 2020
Orbit: 528 x 654 km, 98.2° (Epoch: 23 November)

Event Time Altitude Azimuth Distance (km) Brightness Sun altitude
Rises 22:59:01 0° 172° (S) 2,812 7.1 -23.5°
Reaches altitude 10° 23:01:13 10° 174° (S) 1,892 6.2 -22.9°
Enters shadow 23:05:13 71° 248° (WSW) 598 3.2 -22.0°
